Theta_e
352 351 351 352 352 353 351 351 352 353 353 353 351 350 350 351 352 351 351 351 351 351 349 347 348 349 350 349 349 348 347 345 344 345 346 347 347 348 350 351 350 349 349 348 348 346 347 348 347 347 347 347 347 346 345 346 346 346 347 346 344 342 344 346 348 347 346 345 344 343 342 342 342 344 346 347 348 347 345 346 347 347 347 346 344
352 351 351 351 353 354 352 351 353 353 353 354 353 353 352 350 349 349 352 352 350 350 349 348 348 349 349 349 348 349 348 346 345 347 348 348 348 349 350 349 348 348 348 347 347 346 347 348 347 347 348 347 347 347 346 346 347 347 346 346 345 343 343 344 347 349 350 347 346 346 345 345 344 342 345 347 347 346 345 346 346 346 348 347 346
351 351 351 351 352 354 353 353 353 354 353 353 353 353 352 351 348 349 354 351 348 349 350 348 346 347 348 348 348 348 347 346 346 346 347 349 349 349 348 348 348 347 346 346 347 346 347 348 348 349 348 348 348 348 348 349 349 348 347 346 346 345 344 344 344 348 349 348 347 348 346 346 345 342 345 348 347 346 345 346 346 346 347 347 347
352 351 351 351 352 353 353 353 353 352 351 350 351 351 351 351 351 351 353 350 347 348 348 347 346 346 347 348 346 346 346 346 346 345 347 348 348 346 347 348 348 347 346 347 349 349 349 349 348 349 349 348 348 349 349 349 349 349 348 347 348 346 345 344 345 347 346 347 347 346 347 348 347 345 346 347 347 347 345 344 345 346 346 346 347
352 352 351 352 352 353 352 353 352 352 350 349 350 351 351 351 352 353 352 349 347 346 345 345 346 345 346 347 344 344 345 346 347 346 347 348 347 344 345 346 347 346 345 347 350 351 350 350 349 349 349 348 348 349 348 348 348 348 348 348 348 347 346 345 346 346 346 347 345 347 348 348 348 346 346 347 348 347 346 345 344 345 346 346 346
353 353 351 352 353 353 351 352 353 350 348 348 348 350 353 353 354 354 353 351 349 346 344 344 345 345 345 344 342 342 343 346 346 345 346 346 345 343 343 344 344 344 343 346 350 350 349 349 349 348 348 347 347 348 347 347 347 347 348 349 347 345 345 345 345 346 347 347 344 347 348 347 348 347 347 346 347 348 347 346 345 344 345 345 346
353 353 352 352 353 353 351 352 352 350 348 348 348 351 353 354 354 354 353 353 351 347 344 344 344 344 344 341 341 342 345 346 344 344 344 343 343 342 342 341 340 341 341 343 346 348 349 348 347 348 348 346 347 348 347 347 347 348 348 349 348 344 343 343 345 348 349 348 345 347 348 348 349 347 347 346 346 348 347 346 346 346 344 345 346
352 353 353 353 353 353 352 353 353 352 351 350 350 351 352 352 352 352 351 352 351 349 346 345 345 344 342 340 341 343 346 346 342 342 342 342 342 343 342 340 339 339 340 340 341 343 346 346 346 348 347 347 346 346 347 348 348 347 347 349 348 345 344 344 348 351 351 349 346 348 348 348 348 346 346 345 344 346 346 345 347 347 345 345 344
352 353 353 353 353 353 353 353 353 353 353 352 351 351 350 348 349 350 349 348 349 349 346 345 346 346 342 342 343 343 346 345 340 340 341 342 343 344 342 338 338 339 338 338 339 340 342 343 345 347 347 347 345 345 347 347 347 346 347 347 348 346 345 347 350 353 352 349 347 347 347 347 348 346 344 344 345 346 347 346 345 347 347 345 344
352 353 353 353 352 353 353 353 353 353 352 352 352 351 350 348 348 349 348 347 347 347 346 348 350 349 346 346 346 344 346 343 339 339 340 343 343 343 340 338 338 338 338 338 340 341 343 343 344 346 348 348 345 346 348 347 347 346 346 347 348 347 347 348 350 351 351 349 348 347 346 347 348 345 344 345 346 346 348 348 346 347 348 346 344
353 352 353 353 352 352 352 352 352 352 351 351 351 351 351 350 349 350 349 347 348 348 347 350 352 350 348 349 348 347 348 343 336 339 340 343 343 340 339 338 338 338 339 341 344 344 345 345 346 347 350 350 345 346 349 349 348 347 346 345 346 348 349 350 349 349 350 349 348 348 348 348 348 344 345 347 347 347 348 348 347 347 348 346 344
353 354 353 352 351 352 352 351 351 351 351 350 349 350 351 351 351 351 349 347 350 351 349 350 350 349 348 350 349 347 350 344 335 338 340 342 341 339 339 338 338 340 341 342 344 344 344 345 347 349 351 352 347 344 348 351 350 347 345 343 346 347 348 350 350 349 347 348 349 350 349 348 346 342 345 348 348 348 347 347 347 346 347 346 345
354 355 353 349 349 352 351 350 349 350 351 351 350 350 351 351 352 351 348 348 351 351 350 351 351 349 348 350 348 347 349 342 335 338 339 341 340 339 340 338 339 341 342 342 342 343 344 344 348 351 352 351 348 343 346 351 351 346 344 343 345 346 347 350 350 349 348 347 349 350 350 349 344 340 345 348 348 347 346 347 347 346 346 345 345
355 355 353 350 350 350 349 349 349 349 350 350 350 351 352 351 351 350 348 350 351 349 350 350 351 350 349 349 348 348 346 339 337 337 338 341 340 340 340 339 339 340 341 342 342 344 345 345 349 352 351 350 349 345 343 349 349 343 341 343 344 345 348 350 350 350 349 349 349 349 350 350 344 340 345 348 347 346 346 346 346 346 345 345 345
355 355 354 353 351 349 349 349 349 349 349 350 350 351 352 351 351 351 350 350 350 349 349 350 350 350 350 350 348 347 343 340 339 336 338 341 341 340 339 339 338 340 342 344 345 345 346 347 350 353 351 349 348 345 341 344 344 341 341 343 343 345 348 350 350 349 349 350 348 348 349 350 345 342 345 347 347 347 347 346 346 347 346 345 345
355 355 355 353 351 349 350 351 349 349 349 351 351 350 351 351 351 351 351 350 350 350 350 350 349 350 350 349 347 346 343 341 339 338 340 341 340 338 337 339 341 343 345 346 346 346 347 346 348 351 350 347 344 341 341 342 341 341 340 341 343 344 346 350 351 348 349 349 348 349 348 348 346 344 346 347 348 348 347 347 345 346 346 346 346
355 354 354 354 351 349 351 351 349 349 350 351 350 350 350 351 351 352 351 351 351 350 349 348 348 349 349 348 346 344 343 341 340 341 341 340 339 337 339 342 344 347 348 349 347 347 348 343 344 348 348 345 342 340 340 340 340 340 340 340 343 344 345 350 351 348 349 349 349 350 348 346 345 345 347 346 346 347 347 347 345 345 346 346 346
353 353 354 354 352 351 353 350 348 349 351 351 349 349 350 351 351 350 351 351 351 350 349 348 347 348 347 347 345 344 343 341 342 343 341 339 337 341 346 346 347 351 350 350 346 346 346 342 344 346 345 343 340 339 339 340 339 339 339 340 345 348 348 349 351 349 350 350 349 350 349 346 345 346 348 346 346 347 347 347 346 346 347 346 345
353 353 353 353 353 353 355 350 347 350 351 351 350 349 350 349 349 349 350 351 351 350 349 348 348 348 348 347 345 344 343 343 344 343 340 337 338 347 352 348 349 352 352 350 346 345 345 342 344 345 342 339 338 338 340 342 342 340 340 344 349 350 351 349 349 350 351 351 349 349 348 346 345 347 348 346 345 346 346 347 346 346 347 346 345
353 353 353 353 353 354 356 352 351 352 352 353 351 350 350 349 349 349 350 351 350 350 349 348 348 348 347 347 345 345 346 346 344 342 341 338 339 346 349 348 349 351 351 349 345 345 343 341 343 343 340 337 339 342 345 348 347 345 344 348 350 351 352 348 347 349 350 351 350 349 346 345 345 346 348 347 344 343 346 347 346 346 347 347 346
354 354 353 353 354 356 357 356 357 356 354 357 352 350 349 349 349 349 350 351 350 349 348 347 347 347 347 346 345 349 352 352 349 349 350 346 344 344 345 348 349 349 348 346 344 343 342 341 341 339 338 340 344 348 351 352 351 350 349 350 351 353 352 348 347 348 348 350 352 350 346 345 344 344 348 348 345 343 344 347 346 346 346 347 347
354 354 354 354 356 357 357 357 359 357 356 358 355 351 348 349 350 349 350 350 349 347 346 346 346 347 348 345 347 353 355 352 352 354 355 353 351 346 345 348 348 348 346 344 343 343 341 339 338 337 340 345 346 350 353 351 351 351 351 352 352 352 350 348 349 347 347 349 351 351 346 344 344 343 345 348 347 344 341 344 346 345 345 346 346
355 355 355 355 357 357 357 357 358 357 357 358 357 355 349 351 352 350 350 349 348 346 345 348 350 350 349 348 351 355 354 352 353 353 352 354 353 347 346 349 349 348 345 345 344 343 342 339 340 341 343 346 347 351 352 350 351 350 349 351 350 349 348 348 349 348 347 349 350 350 346 343 344 343 343 346 348 346 342 342 343 345 345 345 345
355 356 356 356 357 357 357 357 357 357 358 357 358 357 351 353 356 354 353 351 350 348 348 351 353 354 352 353 355 354 353 354 352 349 349 351 353 351 350 350 350 350 347 348 349 347 346 345 348 349 348 348 348 350 351 350 350 349 348 349 347 347 346 347 348 348 348 348 349 349 346 342 342 344 343 344 347 348 346 341 340 343 345 345 345
355 356 357 357 357 357 358 357 358 358 358 357 357 358 354 355 358 357 355 354 354 353 353 354 355 355 354 354 355 353 353 354 351 349 349 350 353 355 354 352 352 354 350 350 353 351 351 351 352 353 352 350 349 349 350 350 351 350 349 347 345 345 342 343 344 344 346 348 351 351 349 345 341 343 345 344 345 349 349 344 340 341 343 344 344
355 356 357 357 356 356 357 357 358 358 358 357 357 357 357 358 358 357 356 355 357 356 355 355 355 354 352 354 354 353 353 352 352 351 351 351 353 354 353 351 351 354 352 350 352 351 351 351 350 352 352 350 348 348 349 350 351 349 347 345 343 342 342 342 341 343 346 345 349 351 351 349 342 341 346 346 345 347 349 348 344 341 341 342 343
354 355 356 356 356 355 356 358 358 359 359 357 356 357 357 358 357 357 356 355 356 355 355 355 356 355 353 355 354 352 352 353 353 352 352 353 353 352 351 350 349 350 350 350 351 351 350 349 350 351 350 350 349 349 350 350 349 346 344 343 341 341 341 342 341 342 345 344 347 350 348 348 344 340 344 348 347 347 348 348 347 345 343 341 341
353 353 355 356 355 356 357 357 358 359 359 357 356 357 357 356 356 355 356 355 355 355 355 355 355 356 355 355 354 352 351 352 352 352 352 353 352 351 351 349 350 349 349 349 349 350 350 349 350 351 350 350 350 349 351 350 347 344 343 342 341 341 340 340 341 341 343 344 345 347 346 346 345 340 341 346 349 348 348 348 346 346 347 344 341
353 352 354 355 355 356 357 357 357 358 357 356 356 357 357 355 355 354 354 356 355 355 355 354 353 354 355 354 355 353 351 351 350 350 352 353 351 351 351 350 350 349 349 349 349 349 350 350 350 351 350 350 351 351 351 349 345 343 342 342 341 341 340 339 340 340 341 343 344 344 344 344 344 342 341 343 347 347 347 348 346 345 347 348 346
352 353 353 354 355 355 357 357 357 358 356 356 356 356 356 355 355 354 355 356 355 355 353 353 353 354 356 354 355 354 352 352 351 351 352 353 351 351 351 351 350 350 350 352 351 350 350 350 350 351 351 351 351 351 350 347 344 343 341 342 341 341 340 338 338 338 338 342 344 343 342 342 343 343 342 342 344 347 348 347 346 345 345 347 348
352 354 353 352 354 354 355 356 356 358 356 356 355 354 356 354 355 356 357 356 355 355 354 354 353 354 355 354 355 353 352 353 353 352 352 353 353 352 352 352 352 351 351 352 351 350 351 351 351 352 351 351 351 349 348 345 343 342 340 340 340 340 339 338 338 337 336 339 341 340 340 341 342 343 342 343 344 345 347 347 346 346 345 346 347
353 354 353 353 353 353 354 355 356 357 356 356 355 354 355 355 355 356 357 357 356 355 355 355 354 353 354 355 357 355 354 353 354 355 353 353 354 353 353 353 353 352 349 349 350 351 351 351 351 352 352 352 350 347 345 344 343 341 340 339 338 339 338 336 338 337 335 336 337 340 342 340 341 343 343 343 343 344 346 347 348 347 345 346 346
355 354 354 353 353 353 353 355 356 357 356 354 354 354 355 355 356 357 357 357 357 356 355 355 354 354 355 357 358 356 357 356 356 357 356 356 355 353 354 353 353 351 349 349 351 351 351 351 351 352 352 351 348 346 344 344 343 342 342 339 337 338 337 337 338 338 337 337 338 341 342 342 341 341 341 342 343 343 344 346 348 348 347 347 346
356 355 354 353 352 353 352 354 356 357 356 354 354 354 354 355 356 357 357 357 358 357 356 355 355 356 356 359 358 355 357 358 356 357 357 356 355 354 353 352 351 350 350 350 351 353 352 350 350 350 350 349 347 345 344 344 343 343 343 340 340 337 336 337 337 338 339 338 338 339 341 345 346 344 342 342 343 343 342 343 345 347 348 347 346
356 356 355 354 352 352 352 353 355 356 356 354 353 354 354 356 356 356 356 357 358 357 356 355 355 356 355 358 359 356 357 358 358 356 355 356 356 355 352 349 349 350 352 351 349 352 352 349 349 349 348 348 346 344 343 344 343 343 342 341 341 336 335 336 336 339 340 339 339 340 341 343 344 345 344 343 342 342 342 341 342 345 347 347 347
356 355 355 355 353 352 351 352 353 355 355 353 353 354 355 355 355 355 355 356 358 357 357 356 356 356 355 357 358 359 357 356 358 357 352 356 358 354 350 350 351 350 353 352 349 351 350 348 348 348 347 347 346 343 342 342 341 342 342 341 340 337 336 336 336 339 339 339 341 341 342 341 343 345 343 343 343 342 343 342 342 346 348 347 347
355 354 355 356 355 354 352 352 352 354 356 355 354 355 355 355 354 355 355 356 357 357 357 357 356 356 355 355 356 358 358 354 356 356 352 356 357 353 351 353 353 351 352 353 351 351 349 346 347 347 347 346 344 342 340 340 339 341 340 340 340 338 339 338 337 338 338 340 341 341 342 342 344 345 342 344 346 345 344 342 342 345 349 348 347
353 354 356 356 357 356 353 353 353 353 356 356 356 356 356 356 355 355 355 356 357 357 357 358 357 355 355 355 356 358 358 355 354 354 354 357 356 353 354 355 354 353 353 353 352 350 347 347 347 346 346 345 343 341 339 338 338 338 337 337 340 339 339 339 338 338 338 339 337 337 340 340 342 344 343 344 345 346 346 343 341 343 346 348 348
353 354 356 357 356 357 356 354 355 355 356 358 358 357 358 357 357 356 356 356 357 358 358 358 357 356 355 355 357 359 358 356 354 352 353 357 357 355 355 355 354 353 354 353 352 349 347 347 347 346 345 343 342 341 339 338 338 337 337 338 341 341 339 340 339 337 338 337 333 333 338 340 340 341 342 342 343 345 346 345 344 343 344 346 346
353 354 356 358 357 357 357 356 356 356 357 359 359 359 359 358 358 357 356 356 357 359 358 358 358 356 356 356 356 357 356 357 356 351 349 353 357 357 356 355 354 353 354 352 350 348 347 346 345 343 342 341 341 340 339 339 338 338 339 339 341 342 341 339 338 338 336 334 332 333 335 336 336 339 340 340 341 343 343 344 345 345 345 345 346
354 355 357 358 358 358 358 358 357 357 358 359 360 360 359 358 358 357 357 357 358 359 359 359 358 357 356 356 356 357 357 357 356 353 347 347 353 357 358 356 355 354 353 351 349 347 346 344 343 342 342 341 340 340 340 340 339 341 342 341 340 340 341 340 339 339 336 333 332 333 333 332 333 335 338 339 340 341 341 342 343 343 344 344 344
355 356 358 359 360 359 359 359 358 358 358 358 360 360 359 358 357 358 357 357 358 359 360 359 358 358 357 357 358 358 358 357 355 353 348 349 354 358 359 357 355 354 351 348 347 346 345 343 343 343 342 342 340 339 340 340 340 342 342 343 344 341 339 339 338 338 334 332 332 332 331 332 333 333 335 337 338 340 340 341 342 343 343 342 342
357 357 358 360 361 361 360 360 360 359 358 357 358 359 358 358 357 358 357 357 358 359 360 360 359 360 358 357 358 358 359 358 356 353 352 355 357 358 358 356 354 351 349 348 347 346 345 343 343 343 342 342 342 341 341 340 340 341 341 348 351 348 345 342 336 335 333 331 331 331 332 331 332 331 332 334 336 337 337 338 340 340 341 342 342
358 357 359 361 361 362 361 361 361 361 359 357 358 358 358 359 357 357 358 357 358 358 360 360 357 359 359 357 357 357 358 358 357 357 358 359 358 356 356 354 350 349 348 348 347 345 343 342 343 344 343 344 344 342 342 340 339 340 344 350 348 349 352 347 339 336 333 333 332 331 332 331 331 330 329 330 332 334 335 335 335 336 336 339 341
358 358 359 360 361 363 361 360 360 361 361 358 356 358 359 359 357 358 360 359 359 359 360 360 358 358 359 358 356 357 358 358 358 358 359 360 359 356 353 351 349 349 348 346 345 343 342 342 344 345 344 344 345 344 341 340 340 339 341 345 346 350 353 345 343 342 334 333 334 331 331 332 331 331 330 329 329 330 332 332 333 334 334 334 337
357 357 358 359 361 362 361 360 359 361 361 358 356 358 360 360 359 360 362 361 361 361 360 361 360 359 360 358 356 355 356 358 359 359 358 359 358 355 352 350 349 348 346 344 342 341 341 343 344 345 344 343 343 343 340 338 340 339 337 339 341 346 348 344 348 351 341 334 334 332 331 331 331 332 331 331 330 329 329 330 331 331 332 332 332
356 357 357 358 360 361 362 360 360 361 361 360 358 357 360 361 359 361 363 361 361 362 361 360 360 359 359 357 355 354 357 358 358 357 357 357 355 353 351 349 348 348 346 343 339 339 343 345 345 344 345 343 342 342 340 338 339 339 339 338 337 339 341 342 348 352 350 344 336 330 331 331 331 332 331 331 332 332 331 331 329 328 330 331 330
356 356 357 358 359 361 362 361 361 361 361 362 360 359 360 361 361 363 363 361 361 361 361 360 360 358 356 355 355 356 358 358 356 356 356 354 354 353 351 349 347 346 345 343 341 340 343 344 344 344 343 342 342 342 342 339 339 341 340 340 340 340 338 338 340 342 347 348 342 337 334 331 330 332 331 331 331 333 333 332 330 328 329 331 330
356 357 357 358 359 362 363 363 362 361 362 362 361 361 360 361 363 364 363 362 361 360 359 360 358 356 354 354 355 356 358 357 355 355 355 354 354 353 350 349 347 343 342 342 341 340 342 343 344 344 342 341 342 341 339 337 338 341 342 341 340 340 339 338 337 335 339 345 347 343 337 332 333 332 331 332 332 331 332 332 332 330 329 329 330
356 356 357 358 360 362 363 364 363 362 362 362 363 363 361 362 365 365 364 362 362 360 358 358 356 354 354 354 355 356 357 358 355 355 355 354 354 353 351 349 347 342 340 340 340 341 342 342 342 342 343 342 340 338 337 337 338 340 340 340 339 340 340 337 335 335 336 341 344 341 335 335 338 334 331 332 332 332 332 332 332 332 330 329 328
356 357 358 359 361 363 364 365 364 363 363 363 364 363 363 364 365 365 364 363 362 360 358 356 354 354 354 356 356 356 357 357 356 355 356 355 354 352 351 349 345 340 338 339 341 341 340 338 339 341 341 341 339 338 338 337 338 340 339 338 338 339 339 336 334 334 335 338 342 340 335 334 335 333 332 333 332 333 333 332 332 332 331 330 328
Wind_Speed
14 16 20 20 19 18 21 26 26 25 26 25 25 25 26 26 25 26 24 23 23 23 23 24 24 23 23 22 22 22 22 22 21 20 20 19 19 19 18 18 18 17 16 16 15 14 14 14 15 14 14 14 13 13 12 12 11 10 10 11 11 11 11 10 10 10 10 10 10 10 10 9 9 9 10 11 11 10 10 11 11 11 12 12 12
17 17 20 22 21 19 22 27 26 26 27 26 26 25 24 24 24 26 23 21 22 22 22 22 22 22 21 21 21 21 21 21 20 19 19 19 18 18 18 18 17 17 16 16 15 14 14 14 14 14 14 14 13 13 13 13 12 11 10 9 9 10 10 10 10 9 9 9 9 9 8 9 9 9 9 10 10 9 10 10 11 12 12 12 12
21 18 19 22 22 20 22 26 26 26 27 27 27 25 25 24 23 23 21 21 22 21 21 20 21 20 20 20 20 19 19 19 19 18 18 18 18 17 17 18 17 16 15 15 14 14 13 13 13 14 14 13 13 13 12 12 12 12 10 9 8 8 9 10 9 8 7 7 8 8 8 9 9 9 8 9 9 8 10 11 12 12 13 13 12
22 20 21 22 23 22 22 25 26 26 26 27 27 26 25 24 22 21 19 20 21 20 20 19 18 18 18 18 18 18 18 18 18 17 17 17 16 16 17 17 16 15 14 14 13 13 13 12 12 13 13 12 12 12 11 11 11 11 10 10 9 8 8 9 8 7 6 6 6 6 9 10 8 9 9 9 9 9 11 12 13 13 14 13 13
24 20 21 22 22 22 23 25 25 25 25 26 26 25 23 22 21 20 19 19 19 19 19 18 16 16 16 16 17 17 17 17 16 16 15 16 15 15 15 15 15 14 13 13 12 12 12 11 11 12 12 12 11 11 11 10 10 10 10 10 10 9 7 7 7 5 5 7 7 6 8 10 8 8 10 10 11 10 11 13 14 15 14 13 13
25 21 20 21 22 22 23 26 25 25 25 24 25 23 21 21 20 19 19 19 18 18 18 17 15 15 15 15 15 15 16 15 15 14 14 14 14 14 14 14 13 13 12 11 11 11 10 10 10 11 11 11 11 10 10 11 11 10 10 10 11 10 8 7 7 5 5 7 9 8 6 9 10 9 10 11 11 11 12 13 14 15 15 14 12
25 24 21 21 23 22 22 24 24 24 24 23 23 21 20 19 19 19 19 18 18 18 17 16 15 14 14 14 14 15 15 15 13 13 12 12 12 13 13 12 12 12 11 10 9 9 9 9 9 9 9 10 10 10 10 10 11 10 10 10 10 11 9 8 7 5 6 7 9 9 6 9 12 9 10 11 11 11 12 13 13 14 15 15 13
24 24 23 22 23 23 22 22 23 23 22 22 21 20 19 19 19 19 18 18 17 17 17 16 15 14 13 13 13 14 14 13 12 12 11 11 12 12 11 11 11 10 10 9 8 7 8 8 8 8 8 9 9 8 8 9 10 10 10 10 9 9 9 9 7 6 6 8 8 7 8 11 12 10 10 11 11 11 11 12 13 13 14 15 14
23 23 24 23 23 24 23 23 22 22 22 21 20 19 19 18 18 18 18 17 17 17 16 16 15 14 13 13 13 13 13 12 11 11 11 11 11 10 10 10 10 10 9 9 8 7 6 6 7 8 7 7 7 8 7 8 9 9 10 9 8 7 8 8 7 6 5 8 9 8 9 12 12 10 10 11 11 12 11 10 11 12 13 14 14
24 24 23 22 24 24 23 23 22 22 21 21 20 19 18 17 18 17 17 17 17 17 16 15 14 13 13 12 13 12 12 10 9 10 9 10 9 9 9 9 9 9 9 9 8 7 7 6 7 8 8 7 7 7 6 7 7 8 9 9 7 6 7 7 7 7 5 8 10 10 11 12 11 10 11 11 11 11 10 10 11 12 12 12 12
24 24 23 23 24 24 23 23 22 22 21 21 19 18 18 17 17 17 17 16 16 16 16 15 13 13 12 12 12 12 11 9 8 9 8 8 8 8 8 8 9 9 9 9 8 8 7 7 7 7 7 7 7 6 5 6 7 7 8 8 7 5 6 7 7 6 6 7 10 11 10 11 10 9 11 11 10 10 10 10 11 11 11 11 11
23 23 23 25 25 24 23 23 22 21 20 20 19 18 17 17 17 17 17 16 15 15 15 14 12 12 11 11 11 12 11 8 7 8 7 7 7 7 7 7 8 8 8 8 8 8 7 7 7 7 6 5 6 6 5 6 6 7 8 8 7 5 5 6 7 7 6 7 10 11 9 9 8 8 11 11 10 10 10 10 11 11 11 11 11
24 23 24 26 25 23 22 22 22 20 19 19 18 17 17 17 17 17 17 16 14 14 14 13 11 11 10 10 10 11 10 8 6 7 6 6 7 8 7 7 7 8 7 7 7 7 6 6 6 6 5 5 5 5 5 5 5 7 7 8 7 5 5 6 6 6 7 7 8 10 10 9 6 8 10 10 11 10 10 10 10 12 12 11 11
24 23 24 25 24 23 22 22 21 20 19 18 18 17 17 17 17 17 17 15 14 13 13 12 11 11 10 10 10 10 9 7 5 6 6 6 7 7 6 6 6 7 6 6 6 6 6 6 6 5 5 5 4 5 7 5 5 8 8 7 6 4 5 5 4 5 8 7 7 9 10 8 5 7 9 9 10 10 11 10 10 11 12 12 11
24 24 24 24 24 23 22 20 20 20 19 18 18 17 17 17 17 17 16 15 14 13 12 11 11 10 10 9 9 9 8 6 4 4 5 5 6 6 5 5 5 6 6 6 5 5 6 6 5 4 5 6 5 6 9 7 6 8 8 7 6 5 5 5 4 6 8 6 5 7 8 7 5 6 8 8 10 10 11 11 10 11 11 12 12
24 24 24 24 24 23 21 19 19 19 18 18 18 18 18 17 17 16 16 15 14 13 12 11 11 10 10 9 8 8 6 5 4 3 4 4 4 5 4 4 5 6 5 5 5 5 6 7 6 4 5 7 8 9 10 9 7 8 8 8 7 6 6 6 7 7 7 7 5 5 6 6 4 6 7 8 9 10 10 10 10 11 11 11 12
23 23 24 23 23 22 20 18 18 18 17 17 18 18 17 17 16 16 16 15 14 13 11 11 10 10 9 8 7 6 5 4 3 3 4 3 3 4 4 4 5 5 5 5 6 6 6 7 6 5 6 7 9 9 9 8 7 8 7 7 8 7 6 7 8 6 6 6 5 4 4 5 5 6 7 7 8 10 10 10 10 10 10 11 12
23 23 24 23 22 21 19 18 18 17 17 17 17 17 16 16 16 16 15 14 13 12 11 10 10 9 9 8 7 6 4 3 3 3 3 2 3 4 4 5 4 4 5 6 6 7 6 7 5 5 6 7 9 9 8 8 8 7 6 6 8 8 6 5 6 6 5 4 3 3 4 4 5 7 7 7 7 9 11 10 10 10 10 10 11
22 23 23 23 21 20 19 19 18 18 18 18 18 17 16 16 16 15 14 14 13 12 11 10 10 9 8 8 7 5 4 3 2 2 2 1 2 2 3 4 4 3 4 5 6 7 6 5 4 5 6 7 9 9 10 9 9 7 6 7 8 8 6 2 2 5 3 1 2 3 3 3 6 8 8 7 7 8 10 11 11 10 10 10 10
21 22 22 21 21 20 20 20 19 19 19 18 18 17 16 16 16 15 14 13 12 12 11 10 10 9 8 8 7 5 4 3 2 1 1 1 1 1 2 3 4 4 4 4 5 6 5 5 4 4 5 7 8 8 9 9 9 8 6 5 6 8 8 3 0 3 5 5 3 3 3 3 7 10 9 8 8 8 9 11 11 11 10 9 10
20 20 20 21 20 20 20 20 19 19 19 18 18 18 17 16 15 14 13 13 12 11 11 10 9 9 8 7 7 6 4 4 2 2 1 2 2 2 3 3 4 4 5 4 4 4 4 4 4 4 5 7 6 5 6 6 7 8 5 2 3 6 9 5 2 3 4 7 8 5 3 3 7 10 10 9 8 8 9 10 11 11 10 9 10
19 19 19 20 20 20 20 19 20 20 19 18 18 17 17 16 15 14 13 13 12 12 11 10 9 8 8 7 7 6 6 5 3 4 3 2 2 3 4 4 4 4 4 4 4 4 4 5 5 5 5 6 5 4 6 6 6 7 7 5 3 1 6 3 2 2 2 6 8 5 3 3 6 9 10 10 10 9 8 9 10 11 11 10 10
19 18 19 19 19 19 19 19 19 20 18 18 17 16 17 16 14 13 13 13 12 12 11 10 10 9 9 8 7 7 6 5 5 5 4 3 3 4 3 4 3 3 3 3 4 4 4 5 5 5 5 5 5 5 6 6 6 7 9 8 7 5 1 3 2 2 3 5 5 4 2 3 5 9 10 11 11 10 9 9 10 10 10 10 10
19 18 19 19 19 19 19 19 19 20 19 17 16 16 17 16 15 14 13 13 13 12 11 11 11 10 10 8 8 9 7 6 5 4 4 3 3 4 4 5 4 3 3 2 2 2 2 2 3 4 5 5 5 5 5 6 6 7 9 9 8 8 6 3 2 3 3 3 3 3 1 1 4 8 10 11 11 11 10 9 9 10 10 10 10
19 18 18 18 19 19 19 19 19 20 18 16 16 15 16 15 15 14 13 13 13 13 12 11 12 12 11 10 10 9 6 6 5 4 4 4 4 3 5 5 3 2 2 1 1 2 1 1 3 3 2 4 5 5 5 6 7 7 8 8 8 8 7 4 3 3 1 1 2 4 1 1 3 8 10 11 11 11 10 10 9 9 9 9 10
19 18 18 18 19 18 19 20 19 19 17 16 15 15 16 15 15 15 14 14 13 13 12 12 13 12 11 10 10 9 7 6 6 4 4 5 5 4 4 5 3 3 4 1 2 3 2 2 3 3 3 4 6 6 6 8 7 8 8 7 7 7 6 3 4 3 0 1 2 4 0 2 3 7 10 10 11 12 11 11 10 9 9 9 9
19 19 18 19 19 19 19 19 19 19 18 16 15 15 16 15 15 16 16 15 15 14 13 13 14 12 11 10 10 8 6 6 7 5 4 4 5 5 3 4 4 4 5 2 3 5 3 3 3 3 4 4 6 7 7 8 8 8 9 8 7 7 5 2 2 2 1 1 2 4 1 2 2 7 10 11 11 12 12 12 11 10 10 9 9
20 20 19 19 20 20 19 19 19 19 18 16 15 15 16 15 15 16 15 15 15 15 14 14 14 13 12 10 9 7 5 8 9 7 5 5 4 4 2 4 4 3 4 3 5 4 4 4 4 4 5 4 6 7 6 7 8 8 7 8 8 7 6 3 2 2 1 4 4 3 1 3 0 6 9 11 11 12 13 13 13 11 10 10 9
19 20 20 20 20 20 20 19 19 19 18 16 15 15 15 14 15 16 15 14 14 14 14 14 14 14 13 12 10 9 7 8 8 5 6 6 5 4 3 4 4 4 3 4 5 3 3 5 5 4 5 6 6 6 6 7 7 6 5 6 7 7 7 5 3 2 2 5 6 2 1 4 2 4 9 10 11 12 11 12 13 13 12 11 10
19 20 20 20 21 21 21 20 19 19 18 16 15 15 15 14 14 15 14 13 13 13 13 13 14 14 14 14 12 10 8 6 5 5 6 4 4 4 5 4 3 4 4 4 4 4 4 5 5 4 4 6 5 5 6 7 7 6 3 3 6 6 6 6 5 3 3 6 6 1 2 3 4 1 6 9 10 11 10 11 13 14 13 12 11
19 19 19 20 21 21 20 20 19 19 18 16 16 15 14 14 13 13 12 13 12 11 11 12 13 12 12 13 12 11 9 6 5 5 4 3 3 2 4 4 2 4 4 3 4 5 4 4 5 4 4 5 4 6 6 5 6 6 5 3 4 5 5 7 6 3 2 4 4 2 2 1 2 1 3 6 9 10 10 10 12 13 14 13 12
19 19 19 19 20 21 21 20 20 20 19 16 16 15 14 14 13 12 12 11 12 12 11 10 10 9 8 11 12 11 9 7 7 6 4 4 3 3 4 3 3 5 6 6 5 5 4 5 5 5 5 4 4 5 5 5 5 6 7 4 4 4 5 8 7 8 7 1 1 2 4 1 0 1 1 3 5 8 9 9 10 11 13 14 14
20 19 18 20 20 20 21 21 20 20 20 17 16 16 14 14 13 12 12 11 11 11 11 10 10 8 7 8 10 9 8 9 9 7 5 5 5 5 5 4 5 7 7 6 5 5 6 6 5 6 5 3 4 4 4 5 5 5 6 6 5 6 5 6 7 8 6 4 5 3 2 3 3 2 1 2 3 5 6 8 9 9 11 14 16
20 20 19 20 20 20 20 21 21 21 21 18 16 16 15 14 13 12 12 12 11 11 11 10 9 9 9 8 9 9 9 10 10 8 7 6 6 5 6 7 6 5 4 4 5 6 6 5 4 6 5 4 4 4 4 3 3 3 3 5 5 5 6 5 6 5 3 6 7 6 4 1 2 2 2 3 3 3 4 6 8 9 10 13 14
20 21 21 20 20 20 20 21 22 22 21 20 17 16 16 14 13 12 12 12 11 11 11 10 9 10 10 10 11 11 10 10 9 9 8 7 5 5 7 7 5 4 4 5 6 5 5 5 4 5 5 5 4 5 6 5 3 2 1 3 3 4 6 6 8 6 6 7 5 5 5 3 3 2 1 2 3 4 4 6 7 9 11 13 13
22 22 23 22 21 20 20 20 22 22 21 21 18 16 15 15 13 12 12 12 11 11 10 9 10 10 10 11 12 12 11 10 9 10 9 6 6 6 6 5 4 5 5 5 6 6 5 5 4 4 5 6 6 6 7 7 5 3 2 4 2 4 7 6 7 7 8 7 4 3 3 3 4 3 2 5 6 4 4 4 6 9 11 12 12
24 24 25 24 22 21 21 20 21 22 21 20 19 16 15 15 14 13 12 12 11 10 10 10 9 9 10 10 10 12 11 9 10 10 8 7 7 6 5 4 4 5 5 4 5 5 5 5 4 4 4 5 6 8 8 8 7 3 3 5 0 2 7 6 5 6 6 4 3 2 2 5 6 6 4 2 2 4 4 3 4 6 8 10 10
25 25 25 25 23 21 21 21 20 22 21 20 20 17 15 15 15 13 12 12 12 11 10 10 10 10 10 10 10 13 13 10 11 11 8 8 7 6 5 4 4 5 4 4 5 4 3 3 3 3 4 5 6 7 8 8 8 5 5 5 2 1 4 6 4 4 4 1 3 1 3 5 7 9 7 7 5 3 3 3 4 4 6 7 8
25 25 25 27 26 23 22 22 20 21 21 20 20 18 16 15 15 13 13 13 12 12 11 11 11 11 10 10 11 13 13 11 11 10 9 9 8 7 6 5 6 7 6 5 5 3 1 2 3 3 3 5 4 5 6 5 6 5 5 4 5 2 2 4 3 1 4 1 3 4 5 7 7 8 8 8 7 5 4 3 3 3 5 5 5
25 25 26 27 28 25 24 24 22 21 22 21 20 19 17 16 15 15 14 14 14 13 12 12 11 11 11 12 13 13 13 12 11 11 10 10 9 7 6 7 9 9 6 4 2 1 2 3 2 2 2 4 4 4 3 3 4 3 5 4 2 1 2 2 3 3 5 2 5 6 6 8 9 9 8 7 7 7 7 6 5 4 5 5 3
25 26 27 27 29 27 25 25 24 23 23 23 21 20 19 18 17 16 15 15 16 14 14 12 11 10 10 12 14 13 14 13 13 13 12 11 10 8 7 8 11 10 5 2 2 2 3 2 1 1 2 2 3 3 2 1 4 3 3 4 4 5 4 4 3 4 4 2 8 5 4 8 12 9 7 8 8 7 7 7 6 5 5 4 4
27 28 28 28 28 28 26 26 26 25 24 24 23 22 21 19 18 17 16 15 15 15 14 13 12 11 11 12 13 13 13 13 13 13 12 11 10 9 9 10 11 9 5 6 5 4 3 2 2 2 2 2 2 2 1 1 3 4 2 2 3 5 5 5 4 6 4 4 8 7 6 7 10 7 7 9 11 8 7 6 5 4 3 2 3
28 29 28 28 28 28 28 26 27 27 25 25 25 24 22 20 18 16 16 14 14 15 13 14 14 12 13 14 13 13 13 11 12 13 12 11 10 10 10 9 9 9 8 8 6 5 3 2 2 3 3 3 3 1 1 1 3 6 2 1 1 2 2 5 5 5 3 5 6 6 8 8 8 4 5 8 9 7 6 5 4 3 2 0 2
27 29 29 29 29 29 30 28 28 28 28 27 26 24 22 21 19 16 15 13 13 13 11 14 15 12 12 14 14 14 13 12 13 13 13 12 10 9 9 9 11 10 9 9 6 5 4 4 4 3 2 2 3 3 2 1 4 5 3 1 3 1 1 3 5 4 1 3 7 7 7 7 6 4 2 4 6 5 5 6 5 4 4 2 2
28 29 30 31 30 30 31 30 29 28 28 28 26 25 22 21 20 16 14 12 11 12 11 12 14 13 12 14 16 14 12 14 14 12 13 11 9 9 10 11 12 10 9 8 6 5 5 5 5 3 3 1 3 3 3 4 2 2 2 2 2 1 1 3 3 3 3 2 7 6 5 7 4 3 2 3 4 5 5 6 5 4 5 4 2
28 29 30 30 29 29 31 30 30 28 28 29 28 26 24 23 22 18 16 14 13 14 15 13 14 15 14 15 17 15 14 15 13 11 11 10 10 11 12 11 11 11 9 7 6 6 6 4 4 2 3 1 2 4 1 4 3 0 1 1 2 1 0 3 3 1 3 3 2 3 5 5 2 2 2 4 7 5 4 5 4 3 3 2 1
29 29 29 30 29 29 31 31 30 29 28 29 30 28 25 25 24 20 19 19 17 16 17 15 14 15 14 14 14 14 14 13 11 10 9 10 11 12 12 11 10 11 9 7 6 6 7 6 4 3 3 2 1 4 5 3 4 2 1 1 2 1 1 2 2 1 2 3 5 3 5 4 4 7 5 6 9 5 3 3 2 2 2 1 1
29 30 30 30 31 30 31 32 30 30 28 28 30 30 28 26 24 22 21 21 20 17 17 16 14 13 12 12 12 11 12 12 11 11 10 11 13 14 13 11 10 10 9 8 6 4 5 7 6 4 4 4 3 1 4 3 2 2 4 2 1 2 2 2 1 1 1 2 5 4 5 7 4 6 4 3 6 4 4 3 3 2 3 2 1
29 30 30 30 31 31 31 32 31 30 29 29 30 31 29 27 25 24 22 21 20 17 17 16 14 13 12 13 13 12 13 13 12 12 13 13 14 15 14 11 9 9 8 7 8 6 5 7 8 5 4 7 6 3 0 1 2 4 5 3 2 1 5 3 3 1 1 1 2 3 3 3 2 3 2 1 2 3 3 1 2 1 2 2 3
30 30 30 30 31 31 31 32 31 30 30 30 31 31 30 27 25 24 23 21 19 17 16 16 16 15 14 14 15 14 15 14 13 14 14 15 15 15 13 11 9 8 8 7 7 9 7 7 7 4 5 7 5 3 2 1 1 4 3 2 3 3 5 2 2 2 1 2 3 3 6 4 4 3 1 2 2 0 2 3 4 5 3 4 4
30 30 30 30 30 32 32 33 33 31 30 31 31 31 30 27 26 25 24 22 19 17 16 16 17 17 16 16 16 15 15 15 14 15 15 15 15 14 12 11 9 7 7 7 6 7 7 7 8 7 6 6 3 4 4 3 3 3 3 4 4 6 5 1 1 1 1 2 3 2 7 8 6 5 3 1 2 2 5 6 6 6 6 8 7
Wind_Direction
135 127 122 120 118 118 128 135 127 124 123 121 121 120 121 123 124 120 117 118 119 116 112 108 105 103 102 103 104 104 106 108 109 109 107 106 106 106 104 101 97 94 91 90 89 87 84 84 83 81 79 76 75 76 75 71 70 79 86 85 83 79 77 76 76 79 81 83 81 77 77 79 82 83 89 93 96 99 98 103 112 112 111 114 113
138 130 125 125 124 123 129 136 131 128 128 124 124 123 125 127 127 121 119 122 120 116 112 109 106 104 104 105 106 107 109 110 111 109 106 105 104 104 102 100 96 94 92 90 89 87 84 82 81 80 78 74 74 74 72 69 66 69 76 84 88 85 81 78 76 78 82 86 85 83 80 79 81 80 86 91 94 102 105 108 117 119 117 117 113
135 134 128 129 125 125 129 135 135 134 132 128 126 126 127 126 125 122 123 124 120 116 113 111 109 107 108 107 108 110 112 112 111 109 107 105 104 104 103 99 97 95 92 90 88 86 84 80 78 77 75 74 74 73 71 68 67 68 70 76 83 88 89 86 82 82 84 90 87 90 94 86 81 82 87 89 92 102 114 120 120 122 124 120 114
135 136 130 130 124 125 131 133 135 134 132 130 127 126 126 122 124 125 127 124 120 118 115 114 112 112 111 110 112 113 113 112 111 109 107 105 105 104 102 100 97 94 92 89 85 84 82 78 75 74 73 72 71 71 68 65 65 68 67 67 70 80 92 91 89 88 87 93 90 93 102 95 82 85 88 87 94 101 112 122 123 125 126 123 119
133 135 131 130 124 126 131 132 132 133 132 130 127 123 123 125 128 128 127 123 122 122 121 119 116 116 114 114 116 116 114 111 110 108 106 106 105 104 102 101 98 94 91 89 85 83 80 77 73 71 70 68 68 67 63 61 59 61 63 63 63 69 85 96 97 100 91 91 100 103 105 108 99 88 90 88 95 100 106 116 121 124 126 124 119
131 133 132 129 125 127 130 131 131 134 133 130 126 124 126 130 131 128 124 123 124 125 126 125 121 120 118 119 119 117 114 110 110 107 106 105 104 104 102 99 98 95 90 87 82 79 78 77 72 68 67 65 64 62 61 60 58 58 59 62 62 64 80 99 100 101 86 84 98 101 103 114 109 99 97 94 98 102 106 112 118 124 127 122 117
132 133 134 132 128 128 128 130 131 132 131 129 128 128 131 131 129 126 124 123 125 127 128 128 126 125 123 123 120 117 113 110 112 108 105 101 100 100 101 100 98 94 90 87 81 78 77 76 75 68 63 62 58 58 57 56 56 57 58 61 62 65 79 99 103 91 81 84 93 99 106 111 108 107 105 101 103 106 110 115 120 127 129 124 121
133 135 136 135 133 132 131 130 129 129 130 131 132 134 134 131 128 126 126 126 126 128 129 128 128 129 127 124 120 118 114 113 113 108 104 99 99 101 102 100 93 89 85 82 79 78 78 77 74 68 62 58 54 56 55 53 51 52 56 59 64 70 82 99 104 86 75 82 90 98 108 113 112 111 108 105 105 108 112 115 124 128 128 127 128
136 136 136 136 136 136 134 133 131 131 132 133 136 137 136 135 132 128 128 130 130 129 128 129 130 130 129 126 121 118 116 116 113 107 101 98 102 104 100 90 81 75 70 67 66 66 68 69 61 55 56 52 50 55 54 54 51 51 54 57 66 73 83 94 91 87 74 80 94 96 104 113 115 114 113 112 108 109 111 112 122 127 127 128 131
137 135 135 137 139 138 136 136 134 134 134 134 137 138 138 137 136 135 134 134 132 130 129 130 132 132 131 127 122 119 117 118 113 105 99 100 104 101 89 77 68 61 58 57 55 54 50 49 46 43 45 41 44 54 49 48 50 50 52 54 67 71 81 86 76 80 73 82 96 91 98 111 115 120 119 119 111 109 116 118 123 125 126 127 129
137 135 135 138 140 139 138 139 137 136 136 136 138 138 137 138 140 141 140 138 133 131 133 133 135 134 131 127 122 120 118 120 115 104 100 102 102 93 81 70 63 56 54 54 48 46 44 39 37 41 46 31 28 45 41 41 47 47 53 57 67 73 76 80 75 76 66 81 96 89 96 107 113 123 122 123 116 113 123 128 126 124 124 125 125
136 135 137 142 141 139 141 142 141 138 138 139 139 139 139 140 143 145 144 141 136 135 137 139 139 136 133 128 125 122 120 123 117 107 103 101 96 86 77 66 59 53 48 47 42 41 40 32 34 40 41 20 15 37 37 37 45 46 58 62 69 83 81 76 72 67 60 74 97 103 108 110 113 118 122 128 122 121 128 129 129 127 126 126 125
135 136 141 144 141 141 144 144 144 142 141 142 141 140 141 143 144 146 145 143 140 139 140 143 143 140 138 133 129 126 125 127 119 111 106 100 93 83 73 60 52 50 46 42 35 33 30 25 37 34 23 17 14 38 53 47 46 53 63 63 66 86 89 74 66 64 61 64 88 109 118 120 121 115 124 134 131 132 131 131 132 131 130 130 128
137 138 141 144 144 145 145 145 146 146 145 144 143 142 142 144 145 145 146 146 144 143 145 146 145 144 143 139 135 131 131 133 121 111 109 102 91 82 71 57 48 47 46 41 30 20 18 21 35 30 17 23 20 47 71 69 58 65 69 65 59 71 86 73 64 76 68 60 79 104 119 126 125 118 129 140 141 140 137 138 136 136 135 133 133
139 140 142 145 147 147 145 146 148 148 147 146 145 144 144 145 144 145 147 149 149 149 148 149 148 148 147 144 141 137 138 141 132 112 108 105 93 84 72 54 45 47 44 35 21 3 9 23 31 30 26 32 46 65 76 81 76 74 75 73 58 48 77 74 44 64 69 66 89 107 121 130 129 127 135 142 147 149 146 144 140 141 140 137 138
139 140 141 145 149 148 146 146 148 149 148 148 148 147 147 147 146 147 149 152 153 151 150 152 153 152 152 149 146 144 146 150 139 116 104 98 90 83 66 46 42 47 40 25 12 0 15 27 25 34 49 51 61 70 76 81 82 80 79 81 71 49 65 74 45 47 71 79 102 113 117 131 149 144 142 146 151 155 152 148 144 144 143 143 141
138 139 140 144 149 149 147 148 150 149 150 152 153 151 150 150 150 150 152 154 153 152 154 157 157 157 155 153 153 154 156 157 141 126 111 90 78 69 52 33 36 35 20 14 9 10 23 26 29 56 71 68 66 70 72 74 78 82 83 87 90 73 60 64 51 39 52 69 96 119 119 134 160 159 151 153 155 157 156 154 149 147 148 148 145
137 139 141 144 148 149 149 153 154 151 153 156 157 157 154 154 154 154 154 155 155 156 159 161 161 160 160 160 161 165 166 161 146 137 120 93 77 59 37 19 20 14 1 3 2 11 26 21 35 71 77 74 67 66 64 62 64 73 82 92 100 92 70 56 58 56 38 39 76 125 148 150 163 168 161 157 156 158 159 158 155 152 152 152 151
137 140 142 145 148 148 152 158 157 156 157 158 160 161 160 159 157 157 156 157 159 161 164 164 165 165 164 165 167 173 171 167 165 152 130 96 84 56 20 6 1 353 351 355 352 1 23 22 40 69 74 72 68 67 64 58 53 64 85 98 106 105 100 79 62 89 101 77 64 132 168 188 176 172 168 161 157 161 162 162 161 158 157 155 156
137 141 144 148 150 149 153 158 158 159 158 158 162 164 165 162 159 160 159 160 164 166 168 167 168 168 168 170 174 176 172 173 183 181 146 38 64 38 352 347 345 343 349 352 348 357 24 33 45 62 69 68 69 68 58 51 47 53 75 106 117 120 128 131 85 136 146 153 171 162 155 195 183 173 169 166 162 162 164 165 163 162 163 159 159
140 144 147 150 151 152 154 156 159 159 157 159 163 167 168 165 163 163 162 166 167 170 172 170 172 172 172 175 175 174 179 182 173 196 240 337 345 349 334 336 346 355 360 356 352 5 39 51 59 68 67 60 62 59 38 32 34 35 41 85 127 150 154 133 129 174 160 165 183 180 132 150 177 174 171 171 171 166 165 168 166 165 167 164 163
143 145 149 151 151 154 156 156 159 159 159 160 163 169 170 166 168 168 168 173 172 174 175 174 177 177 181 181 177 182 189 190 179 193 222 259 293 331 336 341 354 10 10 15 22 27 53 67 73 68 60 56 48 35 14 9 9 3 358 347 348 208 178 129 99 172 160 169 176 177 138 124 162 176 175 175 178 173 167 168 170 169 171 170 167
147 148 150 152 152 155 157 157 160 161 162 161 162 170 171 168 171 174 175 178 177 178 177 177 181 185 192 185 183 199 198 190 190 202 212 222 274 318 331 333 344 13 26 51 53 47 62 69 67 53 44 45 28 9 349 348 350 345 347 341 345 354 24 100 97 101 116 157 167 175 170 129 159 176 179 182 183 179 174 171 173 175 175 175 171
150 150 152 153 155 157 158 159 162 163 164 162 162 168 172 171 174 178 181 182 182 184 182 182 188 194 197 192 196 209 203 194 203 215 219 228 276 304 309 311 328 354 16 54 56 41 62 56 36 28 27 18 347 338 335 340 350 347 355 351 350 1 6 53 85 72 107 160 185 183 169 125 171 176 182 186 187 184 181 177 175 179 180 179 176
151 152 154 156 158 159 160 161 164 165 165 165 164 168 171 173 175 180 185 185 185 188 189 190 197 204 201 197 202 209 203 204 211 202 202 225 250 270 290 300 323 322 307 359 290 290 317 305 340 347 347 346 322 326 338 347 357 355 5 356 345 356 357 13 15 7 82 153 166 173 175 326 203 185 184 187 189 188 187 186 181 181 184 184 181
154 156 157 159 162 162 163 163 166 168 167 167 167 168 171 176 180 182 187 188 189 190 194 198 204 211 209 200 202 211 208 203 208 198 198 223 243 248 277 297 296 275 280 311 293 292 262 277 331 324 303 322 327 340 344 343 354 360 1 348 337 344 344 355 357 352 190 7 122 159 240 326 228 198 189 186 190 191 191 193 190 185 185 186 187
159 161 161 161 164 165 166 166 168 170 170 170 168 171 175 179 182 184 188 190 193 193 197 201 204 210 209 204 205 212 208 197 204 210 209 222 252 255 283 295 270 274 294 294 278 282 260 279 311 296 307 319 330 348 350 346 355 356 347 345 344 332 328 348 1 15 184 241 158 154 19 347 221 205 196 187 191 193 194 197 197 192 188 191 193
163 162 162 164 167 167 168 169 171 173 173 171 170 175 179 182 184 187 192 191 192 194 197 201 204 207 203 206 212 213 217 208 210 217 203 196 220 224 258 284 264 272 287 278 272 269 248 265 281 277 306 332 342 346 349 350 352 350 348 352 345 330 343 10 9 6 218 216 193 163 18 2 267 207 199 190 191 193 197 203 202 198 194 194 197
165 162 164 166 169 170 171 172 174 175 176 175 175 180 181 186 187 187 192 189 191 195 197 201 205 203 197 200 204 208 219 208 203 205 189 188 208 220 257 275 280 285 289 295 284 274 265 275 292 298 319 339 346 342 354 5 349 345 1 357 340 337 357 1 349 342 240 210 205 201 349 3 17 207 202 194 192 193 198 205 204 203 202 198 200
168 165 167 169 171 172 174 175 175 176 178 180 182 185 183 189 189 186 191 188 194 200 199 204 202 195 196 200 199 200 209 201 190 182 176 200 229 247 276 277 289 294 299 320 302 291 291 290 295 305 325 330 338 350 6 6 346 341 340 353 346 339 356 349 326 303 256 195 183 189 324 352 26 169 204 199 195 194 196 201 203 204 206 205 204
170 170 170 170 173 174 177 178 178 177 180 183 184 187 184 190 193 188 192 191 196 203 203 208 202 196 199 200 198 201 205 212 234 223 196 224 248 254 278 283 301 295 274 274 293 294 295 299 291 292 311 316 342 4 5 351 345 337 316 339 355 341 2 338 316 344 353 184 185 298 262 275 31 69 189 201 203 202 199 197 198 200 204 208 209
173 176 173 171 175 177 179 178 179 178 181 185 185 187 187 189 195 193 196 198 198 204 207 210 207 205 198 189 191 202 207 213 240 248 220 218 244 248 255 263 280 290 274 256 274 297 303 303 290 289 304 322 358 5 356 339 341 329 321 346 357 1 6 330 335 12 5 284 206 256 225 216 45 105 128 192 201 205 205 200 198 197 199 204 212
175 181 178 175 178 179 179 179 180 180 182 187 186 188 191 191 195 197 199 201 199 205 210 211 212 208 198 193 199 211 217 212 224 232 215 216 238 246 249 258 274 284 279 264 274 294 297 295 295 299 309 341 346 350 352 337 338 328 329 338 350 14 350 329 4 8 352 11 49 79 235 260 234 208 161 167 177 195 203 201 201 196 195 203 214
176 182 183 179 181 181 180 181 181 183 184 188 189 188 191 193 196 199 201 201 202 206 211 213 211 206 204 209 219 226 222 217 225 221 208 221 240 251 254 266 281 278 271 266 270 287 294 290 311 313 311 333 327 327 321 300 305 306 323 320 331 359 328 345 23 3 24 22 18 34 20 327 263 247 201 175 167 182 194 195 199 193 195 209 215
176 180 185 183 184 183 182 182 182 185 186 188 190 190 191 193 196 200 201 202 205 208 211 212 211 215 213 211 222 228 221 219 227 226 219 218 227 249 260 270 278 258 250 267 269 277 293 297 329 331 317 327 333 326 306 286 273 261 294 313 331 355 332 10 17 11 57 39 19 32 14 9 358 318 237 249 219 194 192 190 193 192 197 211 214
179 181 185 186 188 187 186 184 183 185 186 188 192 192 192 195 198 201 204 205 208 211 212 212 214 216 209 209 221 223 218 215 218 232 235 215 207 228 251 269 275 254 238 254 269 269 294 314 332 324 309 322 331 321 309 299 286 252 255 291 6 12 337 1 10 16 36 24 44 64 13 15 17 10 332 284 251 206 168 185 199 199 198 206 213
184 182 183 186 189 188 189 188 184 186 187 189 192 194 195 197 199 201 205 207 210 214 214 214 216 216 209 212 224 220 218 217 214 230 237 223 226 238 256 266 263 254 232 238 261 263 307 329 315 288 293 313 319 314 313 310 304 304 308 301 30 357 334 6 18 8 357 351 59 98 88 57 48 49 35 11 226 187 148 166 197 208 205 205 213
186 183 183 184 189 190 189 191 188 186 189 190 191 195 197 198 201 203 206 208 212 216 217 215 214 220 216 210 213 210 215 221 215 218 220 223 233 242 253 244 229 242 232 229 240 247 314 325 290 283 295 307 311 311 314 317 317 317 302 311 83 107 338 13 10 356 341 26 77 61 118 81 67 72 60 58 78 136 148 150 158 192 205 205 219
185 183 182 182 189 191 190 194 191 187 190 191 191 194 197 200 202 207 209 210 215 216 218 216 213 219 215 206 207 208 215 226 221 213 211 219 226 231 238 228 219 228 223 224 236 245 277 254 270 298 303 306 302 298 303 307 304 293 289 322 67 68 321 352 332 318 310 278 79 40 94 99 82 82 67 53 60 80 97 113 132 167 188 185 210
185 183 183 182 187 192 190 193 193 190 189 188 191 194 197 200 202 206 210 212 215 216 218 217 214 217 216 211 214 220 223 224 223 223 218 216 223 224 225 231 234 237 233 231 250 241 222 219 258 310 301 301 290 276 281 305 308 313 316 311 106 129 247 288 280 244 294 296 98 55 60 71 68 84 79 61 59 69 75 75 90 115 150 158 165
187 185 184 183 186 191 191 191 193 192 187 186 190 194 196 199 201 205 208 210 212 215 217 216 217 220 216 210 212 223 228 224 227 233 230 222 225 221 211 225 235 242 236 177 168 197 209 215 188 281 274 290 296 279 248 334 335 324 307 288 190 186 229 252 247 235 280 60 98 86 60 43 44 58 67 81 87 72 65 65 69 87 111 128 122
188 186 186 185 187 190 192 191 191 193 190 188 191 195 198 199 200 204 207 210 211 212 214 212 215 219 213 207 206 212 223 231 232 232 235 231 224 213 209 225 229 220 182 154 178 200 190 172 166 210 246 259 280 311 17 77 330 301 279 314 198 190 226 243 242 241 240 103 96 93 98 70 48 39 27 68 94 84 69 66 61 71 77 97 118
190 188 188 187 187 190 193 191 190 193 194 191 192 196 199 200 201 204 207 211 211 208 213 213 212 218 220 216 213 212 218 229 230 227 228 226 219 211 207 210 197 173 156 165 190 193 173 167 182 228 248 268 271 272 17 50 347 330 340 45 230 192 222 255 259 241 205 121 119 93 93 96 78 56 13 41 74 83 80 79 75 76 64 133 161
191 190 189 188 189 191 193 191 190 192 194 194 194 196 197 199 201 204 206 211 208 199 206 214 211 215 224 223 222 222 222 224 228 228 223 216 212 204 186 164 154 148 156 174 190 187 180 189 194 221 238 306 303 229 189 91 32 3 357 335 289 299 97 272 268 240 289 83 125 98 88 114 88 72 80 49 62 77 82 80 74 72 75 93 152
192 192 191 191 190 191 192 191 190 190 193 195 194 193 194 197 200 202 202 201 199 191 193 203 205 207 215 219 221 225 230 230 226 223 218 205 183 168 153 143 147 155 167 174 175 183 191 194 189 214 243 277 313 254 175 125 68 20 4 338 317 359 45 330 303 257 303 20 129 105 100 136 108 64 92 99 98 95 81 66 57 73 76 72 96
194 193 193 193 192 191 191 191 191 190 192 194 193 191 191 194 196 195 191 186 183 189 195 198 202 204 205 213 221 224 229 230 222 214 208 183 155 153 150 148 158 162 166 171 175 190 190 176 164 182 231 235 322 310 3 129 147 341 331 252 246 192 325 316 325 279 289 295 188 136 122 139 171 151 155 163 138 111 74 53 44 76 73 56 86
195 194 194 194 192 191 191 191 191 191 191 192 192 191 191 194 196 194 194 191 187 192 198 199 201 201 203 211 219 219 217 216 210 201 192 167 156 160 158 159 167 166 165 168 180 188 168 149 140 150 179 162 169 318 350 92 150 174 164 212 284 353 23 321 358 49 290 297 289 258 153 157 198 169 167 176 154 124 55 54 49 34 2 332 51
195 193 193 193 192 191 191 191 191 191 190 190 191 192 192 195 195 195 197 196 194 196 197 198 199 198 201 205 206 204 197 195 192 184 175 169 167 165 165 166 165 165 163 164 176 178 150 149 149 155 174 165 170 269 360 38 89 101 110 107 22 353 305 289 62 53 327 309 302 289 173 162 166 157 157 166 141 95 38 71 111 66 350 297 308
195 193 193 192 191 190 190 190 191 192 191 190 190 192 194 194 194 196 198 198 200 201 196 194 195 194 194 189 185 184 182 182 184 180 174 174 172 168 169 170 165 165 164 169 182 174 157 157 148 152 180 162 161 186 162 2 16 66 90 114 150 257 278 246 149 152 279 287 330 325 234 208 62 94 147 192 126 67 26 93 140 55 8 266 271
197 194 193 192 190 189 189 189 191 192 191 191 190 191 193 194 193 195 198 198 200 200 194 188 189 192 188 179 175 176 178 181 182 180 178 175 173 170 170 169 169 172 170 177 183 169 167 170 156 168 182 154 150 173 179 188 95 81 89 131 168 233 268 234 144 152 172 260 265 291 291 315 25 36 188 201 170 133 279 255 262 298 288 224 247
198 194 192 192 189 188 188 189 191 192 192 191 191 191 193 194 194 195 197 198 197 195 191 188 188 188 183 177 177 177 177 180 179 177 177 175 172 171 173 172 168 168 171 180 184 177 187 188 174 177 173 154 157 175 182 183 158 151 180 187 201 225 231 196 111 128 128 281 285 311 323 337 340 318 326 356 316 278 276 277 264 269 255 228 230